Regional Weather Roundup
Issued by NWS Pendleton, OR

Home | Current Version | Previous Version | Text Only | Print | Product List | Glossary On
Versions: 1 2 3 4 5 6 7 8 9 10 11 12 13 14 15 16 17 18 19 20 21 22 23 24 25 26 27 28 29 30 31 32 33 34 35 36 37 38 39 40 41 42 43 44 45 46 47 48 49 50
000
ASUS46 KPDT 140904
RWRPDT
PENDLETON REGIONAL WEATHER ROUNDUP
NATIONAL WEATHER SERVICE PENDLETON OREGON
200 AM PDT MON JUL 14 2014

NOTE: FAIR INDICATES FEW OR NO CLOUDS BELOW 12,000 FEET WITH NO
SIGNIFICANT WEATHER AND/OR OBSTRUCTIONS TO VISIBILITY.

# INDICATES UNOFFICIAL STATION AND DATA

WAZ520-141010-
EAST SLOPES OF WASHINGTON CASCADES

CITY            SKY/WX      TMP DP  RH  WIND    PRES   REMARKS
#BULLFROG       N/A         74  61  64  W8      N/A
#BUMPING DAM    N/A         62  N/A N/A SW2     N/A
#CLE ELUM HS    N/A         73  60  64  W6      30.01S
#CLE ELUM LAKE  N/A         70  53  55  CALM    29.91S
#CLIFFDEL 2NW   N/A         66  50  56  N1      N/A
#EASTON DOT     N/A         70  56  61  N2      N/A
#ELK HTS DOT    N/A         75  75  100 NW1     N/A
#GLENWOOD       N/A         54  52  93  CALM    29.98S
#MANASTASH CYN  N/A         67  45  45  CALM    30.07F
#NELSON         N/A         74  62  66  SE1     29.97S
#NELSON 3SW     N/A         70  55  59  CALM    30.13F
#NILE           N/A         58  51  77  CALM    29.28S
#PEOH POINT     N/A         66  54  65  SW8     N/A
#RONALD 2NW     N/A         70  52  53  N1      30.00R
#SOUTH BLEWITT  N/A         60  51  72  CALM    N/A
#TROUT LAKE 1NE N/A         56  55  96  CALM    29.99R
$$

WAZ521-141010-
SIMCOE HIGHLANDS

CITY            SKY/WX      TMP DP  RH  WIND    PRES   REMARKS
#BICKLETON HS   N/A         74  35  24  N9      30.12S
#SATUS PASS DOT N/A         65  46  50  CALM    N/A
#CENTERVILLE 4W N/A         67  58  73  NW9     29.80S
#CENTERVILLE 1SWN/A         61  55  81  CALM    29.92S
#GOLDENDALE 1NE N/A         63  58  84  CALM    N/A
#GOLDENDALE 1S  N/A         62  58  87  CALM    30.03R
#GOODNOE HILLS  N/A         69  60  73  W13     29.94F
#LYLE 6NE       N/A         62  59  90  SE2     29.97R
$$

WAZ026-141010-
KITTITAS VALLEY

CITY            SKY/WX      TMP DP  RH  WIND    PRES   REMARKS
ELLENSBURG AP   CLEAR       77  57  50  NW17G26 30.01F
#ELLENSBURG CWU N/A         76  57  52  NW13    29.85F
#ELLENSBURG 3NE N/A         75  58  56  N9      30.01S
#ELLENSBURG 1E  N/A         76  54  46  CALM    N/A
#KITTITAS 3S    N/A         67  57  70  CALM    29.91S
#ROCKY CYN DOT  N/A         74  60  62  W9      N/A
#RYEGRASS DOT   N/A         71  55  57  W12     N/A
#THORP 6N       N/A         73  57  57  N12     29.93S
$$

WAZ027-141010-
YAKIMA VALLEY

CITY            SKY/WX      TMP DP  RH  WIND    PRES   REMARKS
YAKIMA AIRPORT  CLEAR       72  48  43  W7      29.98S
YAKIMA-VAGABOND CLEAR       71  47  42  E5      30.01S
#COWICHE 1N     N/A         75  51  43  NW14    30.16F
#GRANDVIEW      N/A         73  54  51  CALM    29.93S
#MABTON         N/A         71  55  57  CALM    29.95S
#MOXEE 2E       N/A         72  42  34  E1      29.92R
#NACHES 2SW     N/A         74  52  46  W12     30.03S
#PARKER DOT     N/A         81  46  29  S7      N/A
#SELAH 8E       N/A         71  43  36  E3      N/A
#TERRACE HTS    N/A         77  49  37  CALM    29.87F
#TOPPENISH      N/A         73  53  49  N1      29.83S
#I82 S UMTANUM RN/A         70  45  41  NE2     N/A
#UNION GAP DOT  N/A         69  53  57  S7      N/A
#WEST VALLEY    N/A         73  51  46  CALM    29.93R
#W YAKIMA       N/A         78  52  40  NW3     29.90S
#WHITE SWAN 5E  N/A         70  52  53  W5      29.91S
#WILEY CITY 3W  N/A         72  52  49  CALM    29.98F
#ZILLAH DOT     N/A         71  55  57  S2      N/A
$$

WAZ028-141010-
LOWER COLUMBIA BASIN...WASHINGTON

CITY            SKY/WX      TMP DP  RH  WIND    PRES   REMARKS
PASCO           MOCLDY      78  60  54  SW9     29.93S
PROSSER AWOS    N/A         68  55  63  SW2     29.98S
RICHLAND AWOS   MOCLDY      81  52  37  CALM    29.92R
#BASIN CITY 5SW N/A         76  60  58  CALM    29.93R
#BENTON CITY    N/A         77  55  47  W7      29.80S
#CONNELL 5N     N/A         80  46  30  CALM    29.87R
#CONNELL 5NW    N/A         75  58  56  CALM    29.84R
#ELTOPIA 6NW    N/A         81  51  35  SW2     28.92R
#KENNEWICK 3S   N/A         82  56  41  CALM    29.88F
#PATERSON       N/A         79  57  47  S1      29.90R
#PROSSER DOT    N/A         74  54  50  W2      N/A
#PROSSER        N/A         81  44  27  SW3     29.90S
#SAGEMOOR 2W    N/A         76  59  56  CALM    29.74R
#TOUCHET 2S     N/A         75  60  60  CALM    29.88F
#WEST PASCO     N/A         83  55  38  NW1     29.91R
$$

WAZ029-141010-
FOOTHILLS OF THE BLUES...WASHINGTON

CITY            SKY/WX      TMP DP  RH  WIND    PRES   REMARKS
WALLA WALLA AP  CLOUDY      83  50  32  SE10    29.98S
#COLLEGE PLACE  N/A         81  56  42  E2      29.94F
#DAYTON SCHOOL  N/A         81  45  28  E2      30.00R
#DELANEY DOT    N/A         84  46  27  SE7     N/A
#LOWDEN 2SE     N/A         76  62  62  E5      29.90F
#PLEASANT VIEW 1N/A         86  47  26  S2      29.92R
#PRESCOTT       N/A         86  48  27  SW3     29.87R
#SUDBURY        N/A         76  N/A N/A E3      N/A
#WHITMAN COLLEGEN/A         79  55  44  E3      29.94R
#WAITSBURG 8N   N/A         80  35  20  SE3     29.88R
#WALLA WALLA 5E N/A         78  56  47  N1      N/A
#WHITMAN MISSIONN/A         76  59  56  CALM    29.91F
$$

WAZ030-141010-
BLUE MOUNTAINS...WASHINGTON

CITY            SKY/WX      TMP DP  RH  WIND    PRES   REMARKS
$$

ORZ009-041-WAZ024-141010-
COLUMBIA RIVER GORGE

CITY            SKY/WX      TMP DP  RH  WIND    PRES   REMARKS
HOOD RIVER AP   PTCLDY      64  61  90  CALM    30.07S
THE DALLES AP   PTCLDY      71  61  71  NW20G30 29.99F
#ARLINGTON AIRPON/A         72  58  61  SW16    N/A
#ARLINGTON HS   N/A         75  59  58  SE1     29.84R
#CELILO DOT     N/A         73  59  62  NW1     N/A
#MARYHILL       N/A         69  60  73  CALM    N/A
#MOSIER 1S      N/A         69  56  63  SW3     30.09S
#MURDOCK        N/A         73  63  71  NW28G39 30.00S
#RUFUS DOT      N/A         74  60  62  W14     N/A

$$

ORZ510-141010-
NORTH CENTRAL OREGON

CITY            SKY/WX      TMP DP  RH  WIND    PRES   REMARKS
#CHENOWITH 1W   N/A         65  59  81  W26     N/A
#COW CYN RST AREN/A         70  50  49  NW6     N/A
#GRASS VALLEY 1SN/A         66  53  63  CALM    29.96R
#KENT DOT       N/A         65  49  56  W8      N/A
#MAUPIN SCHOOL  N/A         68  60  76  CALM    30.04S
#MORO SCHOOL    N/A         68  62  81  W10     30.04S
#SHANIKO 5WSW   N/A         67  46  47  NW3     N/A
#SHANIKO 4NW    N/A         68  50  53  NW6     30.14S
#TYGH VALLEY 2NEN/A         64  55  73  N1      29.96R
#WAPANITIA AIRPON/A         64  56  75  NW2     29.96S
#WASCO DOT      N/A         65  61  87  SW6     N/A
#WASCO 5NE      N/A         64  58  81  SW8     29.93S
$$

ORZ511-141010-
CENTRAL OREGON

CITY            SKY/WX      TMP DP  RH  WIND    PRES   REMARKS
BEND AIRPORT    CLEAR       63  48  58  NW3     30.15S
MADRAS AIRPORT  CLEAR       61  52  72  CALM    30.10S
REDMOND AIRPORT CLEAR       58  46  64  CALM    30.11S
#BEND 6E        N/A         67  43  42  CALM    29.85F
#BEND 1SW       N/A         57  46  67  S1      N/A
#BEND-AWBREY    N/A         70  46  42  S1      29.91F
#BEND-KIM LN    N/A         65  48  54  CALM    30.11S
#CULVER         N/A         63  53  70  CALM    30.06S
#LAKE BILLY CHINN/A         64  36  35  CALM    30.13S
#POWELL BUTTE 3EN/A         69  48  47  W5      N/A
#POWELL BUTTE   N/A         68  48  49  W1      29.77S
#PRINEVILLE 3N  N/A         60  51  72  CALM    29.90R


ORZ509-141010-
EAST SLOPES OF OREGON CASCADES

CITY            SKY/WX      TMP DP  RH  WIND    PRES   REMARKS
#BLUE BOX PASS  N/A         55   3  12  NW1     N/A
#BLACK BUTTE RNCN/A         54  50  86  CALM    29.97F
#CAMP SHERMAN   N/A         51  47  86  CALM    30.03F
#LA PINE DOT    N/A         60  43  53  W1      N/A
#LA PINE 4NW    N/A         51  46  83  CALM    29.98S
#LAVA BUTTE DOT N/A         57  44  62  NE1     N/A
#MT BACHELOR-LOWN/A         60  N/A N/A MISG    N/A
#MT BACHELOR-MIDN/A         58  37  45  E14G35  N/A
#SISTERS AIRPOR N/A         56  54  93  CALM    30.12S
#SISTERS ODOT   N/A         55  N/A N/A CALM    N/A
#SUNRIVER       N/A         56  49  77  CALM    29.83F
#SUNRIVER AP    N/A         53  47  80  CALM    29.91S
#SUTTLE LK DOT  N/A         53  49  86  W15     N/A
#TUMALO 3W      N/A         71  45  39  W6      29.81S
#WANOGA BUTTE D N/A         62  38  41  NE6     N/A

$$

ORZ044-141010-
LOWER COLUMBIA BASIN...OREGON

CITY            SKY/WX      TMP DP  RH  WIND    PRES   REMARKS
HERMISTON       MOCLDY      75  61  62  W7      29.95R
#BOARDMAN 3W    N/A         72  56  57  CALM    29.65R
#BOARDMAN 8SW   N/A         73  59  62  SW6     29.92R
#IONE SCHOOL    N/A         76  51  42  SW2     29.98R
#IRRIGON 4NW    N/A         74  64  71  S3      N/A
#UMATILLA SCHOOLN/A         74  67  79  CALM    30.00R
#UMATILLA       N/A         76  61  60  CALM    29.91R
$$

ORZ507-141010-
NORTHERN FOOTHILLS OF THE BLUES

CITY            SKY/WX      TMP DP  RH  WIND    PRES   REMARKS
PENDLETON AIRPT THUNDER     76  52  43  S12     30.01R
#ADAMS 3WNW     N/A         75  53  46  E2      29.85F
#ATHENA         N/A         76  52  43  CALM    29.89F
#HELIX SCHOOL   N/A         75  52  45  CALM    29.87F
#HELIX 3N       N/A         78  48  35  E6      29.97F
#M-F FERNDALE   N/A         78  53  42  CALM    29.94F
#M-F GROVE ELEM N/A         80  47  31  CALM    29.96F
#M-FREEWATER 5SEN/A         76  54  46  NE8     29.97F
#PDT AQUATIC CTRN/A         78  51  39  S2      30.01S
#PENDLETON DNTN N/A         78  48  35  CALM    29.92F
#PDT SUNRIDGE   N/A         76  55  48  CALM    29.96F
#PENDLETON 7NW  N/A         81  57  44  CALM    31.53S
#PILOT ROCK     N/A         74  54  50  CALM    30.03F
#TUTUILLA       N/A         75  57  54  W1      29.85F
#UMAPINE 2E     N/A         76  55  48  SE3     29.90F
#WESTON SCHOOL  N/A         81  44  27  S7      29.96F

$$

ORZ508-141010-
SOUTHERN FOOTHILLS OF THE BLUES

CITY            SKY/WX      TMP DP  RH  WIND    PRES   REMARKS
#AJAX           N/A         N/A N/A N/A W2      30.08S
#CONDON SCHOOL  N/A         72  49  44  CALM    30.04S
#CONDON 5W      N/A         70  48  46  NW3     30.09R
#FOSSIL SCHOOL  N/A         63  53  70  CALM    30.06R
#HEPPNER EOC    N/A         70  57  63  SE1     29.84S
#HEPPNER 4NE    N/A         71  54  55  E6      29.86F
#LEXINGTON 2SE  N/A         72  59  64  S8      29.98R
#MIKKALO        N/A         69  51  53  W1      30.04S
#OLEX 4N        N/A         69  57  66  W9      29.98R
#RUGGS 5NE      N/A         67  55  65  E1      30.27S
#RUGGS 2SW      N/A         69  54  59  S5      29.94R

$$

ORZ502-503-141010-
BLUE MOUNTAINS

CITY            SKY/WX      TMP DP  RH  WIND    PRES   REMARKS
MEACHAM         CLOUDY      63  56  78  VRB3    30.11F
#BATTLE MTN DOT N/A         61  59  93  NW1     N/A
#HARDMAN 10S    N/A         60  54  81  CALM    30.21S
#HEPPNER 15SE   N/A         58  55  90  CALM    30.09R
#LADD CYN SMT   N/A         69  49  49  NW3     N/A
#LADD CREEK ODOTN/A         63  59  87  S3      N/A
#N POWDER DOT   N/A         74  53  48  N15G25  N/A
#TOLLGATE       N/A         65  51  60  E3      30.17R
#TROY SCHOOL    N/A         73  53  49  N2      29.75F
#UKIAH          N/A         65  54  68  NW1     29.96S
#WESTON 4E      N/A         74  49  41  N3      29.80F
$$

ORZ505-141010-
JOHN DAY BASIN

CITY            SKY/WX      TMP DP  RH  WIND    PRES   REMARKS
JOHN DAY        PTCLDY      72  46  39  W7      30.11F
#JOHN DAY KJDY  N/A         71  64  79  CALM    29.92F
#MONUMENT HS    N/A         68  58  70  CALM    29.80R
#MT. VERNON 5SE N/A         73  47  40  W1      30.08F
#WINLOCK        N/A         66  51  58  CALM    30.17S
$$

ORZ506-141010-
OCHOCO AND JOHN DAY HIGHLANDS

CITY            SKY/WX      TMP DP  RH  WIND    PRES   REMARKS
#BUCK CREEK DOT N/A         69  50  51  W7      N/A
#KEYES SMT DOT  N/A         66  45  47  CALM    N/A
#PAULINA SCHOOL N/A         N/A N/A N/A CALM    30.10F
#PINE MTN OBS   N/A         58  45  62  NW2     N/A
#PRAIRIE CITY   N/A         60  52  75  CALM    30.04R
#SENECA 9NW     N/A         69  46  44  CALM    29.82F
$$

ORZ049-141010-
GRANDE RONDE VALLEY

CITY            SKY/WX      TMP DP  RH  WIND    PRES   REMARKS
LA GRANDE       CLOUDY      73  46  38  CALM    30.04F
#COVE           N/A         74  55  51  N1      29.97R
#COVE SCHOOL    N/A         74  52  46  E3      30.05R
#COVE 6NW       N/A         72  52  49  NE8     29.93S
#ELGIN 3N       N/A         74  47  38  CALM    29.80R
#ELGIN 1E       N/A         75  48  38  N5      N/A
#ISLAND CITY 4N N/A         76  53  45  N12     29.83F
#LADD CYN DOT   N/A         66  56  70  SE7     N/A
#UNION 1S       N/A         75  52  45  E2      29.80R
$$

ORZ050-141010-
WALLOWA COUNTY

CITY            SKY/WX      TMP DP  RH  WIND    PRES   REMARKS
#ENTERPRISE HS  N/A         66  53  63  CALM    30.12F
#IMNAHA SCHOOL  N/A         79  44  29  CALM    29.97F
#JOSEPH 3N      N/A         62  50  65  CALM    30.16S
#LOSTINE        N/A         65  58  78  CALM    29.74R
#MT HOWARD 8000 N/A         60  38  44  N7      30.42F
#PROMISE 1S     N/A         73  47  40  SE3     29.96F
#SHEEP RDG 7000 N/A         66  38  36  CALM    29.95R
#WALLOWA SCHOOL N/A         70  53  55  CALM    30.85R



$$



USA.gov is the U.S. government's official web portal to all federal, state and local government web resources and services.